Location: Aragnouet
(42.7874°N, 0.2165°E)
Time: 22:43:16
(UTC+00:00)

Cosmos 1455 - Pass Details

Date: 09 April 2020
Orbit: 498 x 524 km, 82.5° (Epoch: 05 June)

Event Time Altitude Azimuth Distance (km) Brightness Sun altitude
Exits shadow 21:30:43 23° 358° (N) 1,144 4.3 -28.8°
Drops below altitude 10° 21:32:15 10° 3° (N) 1,755 5.4 -29.0°
Sets 21:34:25 0° 6° (N) 2,651 6.4 -29.3°
